sat.trackr.live / text

‹ back to catalog

STARLINK-35060

NORAD 65693 · 2025-212T

PAYLOAD ACTIVE UNKNOWN

§ Identity

Operator
Country
US
Launch date
2025-09-21
Launch site
AFETR
Launch vehicle
Mass (kg)
RCS (m²)

Purposes: comms

External: N2YO · Heavens-Above · Gunter

§ Orbital elements

Epoch: 2026-05-24T22:52:53.423040Z

Period
94.10 min
Inclination
53.1596°
Eccentricity
0.0001134
Mean motion
15.30211613 rev/d
Perigee alt
474.4 km
Apogee alt
476.0 km
Semi-major
6,853.3 km
B*
3.9014e-4
RAAN
341.1781°
Arg perigee
85.0361°
Mean anomaly
275.0770°
Rev number
3,906

§ Raw data

STARLINK-350601 65693U 25212T   26144.95339610  .00011217  00000+0  39014-3 0  99952 65693  53.1596 341.1781 0001134  85.0361 275.0770 15.30211613 39066

JSON: /api/v1/satellites/65693 · /tle

For live sub-satellite position, see the globe view (requires WebGL).

§ Visibility from observer

Set your observer location to see the next 7 days of passes ≥ 10°. The values pass through the URL so the page stays shareable.

No JS? Fill the form by hand. The geolocation button needs JavaScript.